Location: Artiguedieu
(43.5000°N, 0.5454°E)
Time: 20:28:41
(UTC+00:00)

Transit 2A - Pass Details

Date: 26 July 2021
Orbit: 594 x 964 km, 66.7° (Epoch: 28 September)

Event Time Altitude Azimuth Distance (km) Brightness Sun altitude
Rises 06:53:01 0° 186° (S) 2,816 8.8 21.9°
Reaches altitude 10° 06:55:21 10° 177° (S) 1,926 8.1 22.3°
Maximum altitude 06:59:13 33° 112° (ESE) 1,023 8.1 23.0°
Drops below altitude 10° 07:03:16 10° 48° (NE) 2,027 9.2 23.7°
Sets 07:05:48 0° 39° (NE) 2,988 9.7 24.2°
